Dewpoint
41 41 41 41 40 40 40 40 40 40 40 40 40 39 39 39 39 38 38 38 37 37 37 36 36 36 36 36 36 36 37 36 35 36 35 35 36 38 40 41 41 41 41 41 42 42 42 42 42 43 43 43 43 44 45 45 45 46 46 46 45 46 46 45 44 44 45 45 46 45 46 45 45 44 43 43 42 42 40 41 41 40 40 40 39
40 40 40 39 39 39 38 38 38 38 38 38 37 37 37 37 36 36 36 34 35 36 36 35 34 34 34 35 35 35 36 37 35 35 36 36 36 39 37 39 40 40 40 39 40 40 40 40 40 40 41 41 41 41 42 42 42 42 42 43 43 43 44 43 42 41 40 42 42 43 44 44 43 44 44 43 44 43 41 41 40 39 39 39 39
39 39 38 38 38 37 37 37 37 36 36 36 36 35 35 34 33 35 35 34 34 34 34 34 33 33 34 33 34 35 35 34 34 35 35 35 35 34 34 36 37 38 38 39 39 39 39 39 39 39 40 39 39 40 40 40 40 40 40 41 41 41 42 43 42 39 40 40 41 41 42 42 42 43 43 43 42 41 40 40 40 39 38 37 37
38 37 37 36 36 36 36 35 35 35 35 35 34 33 33 33 32 33 32 32 34 33 32 32 33 33 34 34 34 34 34 34 34 33 34 34 34 34 34 33 34 35 36 36 36 36 37 38 37 37 37 37 37 37 36 37 38 38 38 39 39 39 40 41 42 41 40 39 40 41 41 41 42 42 42 40 40 40 40 39 37 36 37 36 36
36 36 35 35 35 35 34 34 34 34 34 33 33 32 32 32 32 32 32 33 32 33 33 32 33 34 34 34 34 34 33 32 33 32 32 32 33 33 33 33 33 33 33 34 35 35 35 35 36 35 35 36 35 34 34 35 36 37 37 38 38 39 39 39 39 40 39 38 39 40 41 41 41 41 41 40 41 40 37 37 37 37 35 35 35
35 34 34 34 34 33 33 33 33 32 32 32 32 32 32 31 31 32 31 32 32 32 32 32 32 32 31 31 31 31 31 31 32 32 32 32 31 31 31 31 31 32 32 33 33 33 33 34 34 34 34 34 34 34 34 34 35 36 36 37 37 37 37 38 38 38 38 38 38 38 39 39 39 39 40 39 39 39 39 38 35 34 33 34 34
34 34 33 33 33 32 32 32 32 32 32 31 31 31 31 30 31 31 30 30 31 31 30 30 30 30 30 30 31 31 31 31 31 31 32 31 31 32 31 31 31 31 32 32 32 32 32 33 33 33 33 34 34 34 34 34 35 35 35 36 36 36 37 37 37 37 37 37 37 38 38 39 39 38 39 39 37 37 37 37 36 37 34 34 34
33 33 33 33 33 32 32 31 31 31 31 30 30 30 30 30 30 29 29 30 30 29 29 29 29 29 30 30 30 30 30 30 30 30 30 30 31 31 31 31 31 31 31 31 31 32 32 32 32 33 33 33 34 34 34 34 34 35 36 36 36 36 36 36 36 36 36 36 36 36 37 37 38 38 38 36 36 35 34 34 35 36 36 34 33
33 32 32 32 32 31 31 30 30 30 30 30 30 30 30 29 29 29 28 29 29 29 29 29 29 29 29 29 30 30 30 31 30 30 31 32 31 32 31 31 31 31 31 31 31 31 32 32 32 32 32 33 33 34 35 35 35 35 35 35 35 35 35 35 35 35 35 35 35 36 36 36 36 36 36 36 36 36 36 34 34 35 35 35 34
32 32 31 31 31 30 30 29 30 29 30 30 29 29 29 29 28 28 28 28 28 28 28 28 28 29 29 29 29 29 29 29 30 33 35 33 32 31 31 31 30 30 30 30 30 30 30 30 31 31 32 32 32 33 35 35 35 35 35 35 34 35 34 34 34 34 34 34 34 35 34 34 35 35 35 36 36 36 36 35 35 35 35 34 34
31 31 31 30 30 30 30 29 29 29 29 29 28 28 28 28 27 26 27 27 27 27 27 27 27 27 27 27 28 28 28 28 31 34 35 35 33 31 30 30 30 30 30 30 29 29 29 30 30 30 31 31 32 33 34 35 35 35 36 36 36 35 34 34 34 34 34 34 34 34 34 34 34 35 35 35 35 36 36 36 35 35 34 34 33
31 30 30 30 29 29 29 28 28 28 27 27 27 26 26 25 25 25 25 26 26 25 26 26 26 26 27 26 27 27 27 30 33 35 35 34 34 32 31 30 30 29 29 29 29 29 29 29 29 29 30 30 31 31 32 33 34 34 35 35 35 36 36 35 35 34 34 34 33 33 34 34 34 35 35 35 35 35 35 35 35 35 34 34 33
30 29 29 29 28 28 27 27 27 27 26 25 25 25 23 24 23 24 25 26 25 25 25 25 25 25 25 26 26 27 26 30 33 35 35 34 34 33 30 29 29 29 28 28 28 27 27 27 27 27 27 28 30 30 30 31 32 33 33 34 34 35 36 37 37 36 36 35 34 34 35 34 34 34 35 35 35 35 35 35 35 34 34 33 33
29 28 28 28 27 27 26 26 26 25 25 24 24 24 23 23 23 23 24 24 24 24 24 24 25 25 25 25 26 26 26 28 32 33 33 33 33 32 29 29 28 28 27 27 26 26 26 26 25 24 24 25 27 28 29 30 30 30 31 31 31 32 33 35 35 35 36 36 36 35 35 35 34 35 35 36 35 35 35 34 35 34 34 33 33
27 27 27 27 26 26 25 25 25 25 24 23 23 22 23 21 22 23 24 25 25 25 25 24 25 23 24 24 24 25 25 29 31 32 32 33 33 33 28 27 27 26 25 25 25 25 24 25 24 24 24 24 24 27 28 28 29 29 30 30 30 30 31 32 32 33 35 35 36 36 36 36 36 36 36 36 36 36 36 35 35 35 35 35 34
27 26 26 26 25 25 25 25 25 24 23 22 22 22 22 22 22 23 24 24 23 23 23 21 22 23 23 23 23 22 22 28 30 31 31 31 30 27 26 25 24 24 23 23 23 23 23 23 23 22 23 23 25 29 29 28 29 28 28 29 29 30 30 31 33 34 34 35 35 35 35 36 36 35 35 36 36 36 35 35 35 34 33 32 31
26 26 25 25 25 25 24 24 24 23 22 21 21 21 21 22 22 23 24 24 23 22 20 21 23 22 21 21 21 21 22 26 28 29 28 28 29 26 25 24 24 23 22 22 22 22 22 22 22 22 23 23 26 29 31 31 29 28 28 28 29 29 29 31 32 33 34 35 36 36 37 37 37 37 38 37 36 36 35 35 33 34 32 30 30
25 25 25 24 24 24 24 23 22 21 20 20 20 20 20 19 19 22 23 23 21 20 21 21 20 19 19 19 20 21 21 23 26 27 26 27 28 25 25 24 23 23 23 22 23 23 23 25 25 24 24 24 28 30 31 31 29 29 29 29 29 29 29 30 30 31 32 33 34 35 35 36 36 36 37 37 37 37 34 32 33 34 32 31 30
24 23 23 23 23 23 22 22 21 20 19 19 19 19 19 19 22 22 21 18 19 19 20 19 18 18 17 18 22 21 19 21 24 25 25 26 25 24 24 23 23 22 23 23 23 24 24 25 26 27 26 27 29 29 29 29 28 29 29 29 29 29 29 30 30 31 31 31 32 32 32 33 34 34 34 35 36 35 35 34 34 33 31 31 31
22 22 22 22 22 22 22 20 20 19 18 18 18 19 21 21 20 19 18 16 17 17 16 15 14 16 16 16 18 18 18 19 21 23 24 25 26 24 23 22 22 23 23 23 23 23 23 23 24 26 27 28 28 29 29 30 29 29 29 28 28 28 30 30 31 31 31 31 31 31 31 32 32 33 33 33 33 33 34 34 34 33 32 32 31
21 21 21 21 21 21 20 19 18 18 18 19 20 20 19 19 17 14 14 15 13 14 14 14 14 14 14 14 15 15 17 18 19 22 23 24 25 25 22 23 23 23 23 22 22 22 23 23 23 26 27 28 29 29 29 30 29 29 29 28 29 29 30 29 30 30 31 30 30 29 29 30 31 31 31 32 33 33 33 33 33 33 33 32 31
20 21 20 20 19 18 17 17 18 19 19 20 17 16 15 14 13 13 11 11 12 13 13 15 15 15 15 14 14 16 17 20 18 21 22 23 24 25 23 22 23 23 23 23 23 24 24 24 24 25 27 27 28 28 29 29 29 27 28 29 30 30 29 29 30 29 28 28 28 28 28 28 28 29 30 31 32 32 33 33 33 33 33 33 32
19 20 19 18 18 17 18 18 18 19 17 16 14 11 11 10 10 12 12 12 12 12 13 13 13 13 14 14 13 16 16 17 19 19 22 22 24 24 25 24 26 24 24 23 23 23 24 24 24 25 26 27 28 28 29 29 28 27 28 28 28 28 27 25 26 27 28 28 29 28 29 29 29 29 29 30 31 32 31 30 28 28 30 31 30
18 18 18 18 18 18 18 17 15 14 13 13 11 11 10 9 9 10 11 12 12 11 12 13 13 12 13 13 14 15 16 16 18 19 20 21 23 24 25 25 25 24 23 22 23 22 23 23 24 26 27 27 27 27 27 26 25 27 27 27 27 26 25 25 26 28 29 28 27 28 28 28 28 28 28 30 30 25 20 18 18 19 19 19 19
17 17 17 17 17 15 13 12 12 11 9 10 10 10 9 8 9 9 10 11 11 10 11 11 12 12 13 13 13 14 16 16 16 18 19 21 23 24 24 24 24 24 21 22 22 22 23 25 26 26 26 26 26 25 25 25 26 26 26 26 26 25 26 27 28 28 28 27 27 27 27 28 29 28 28 22 18 17 16 15 14 15 15 15 15
17 16 16 15 13 13 13 12 10 9 7 7 8 8 8 8 9 8 8 7 6 7 9 10 11 11 12 13 14 14 15 15 16 16 18 20 20 22 22 23 22 22 22 21 23 24 24 25 25 24 24 23 22 23 22 23 24 24 24 25 27 27 27 27 26 26 25 26 27 27 26 27 28 23 19 18 18 18 16 15 15 16 17 17 16
16 16 15 15 13 12 11 11 9 7 5 5 5 7 7 5 5 7 5 4 5 6 7 9 10 11 12 13 14 14 14 15 15 15 17 18 19 20 20 20 21 21 21 21 22 22 22 22 21 22 22 22 22 21 20 20 22 22 23 25 26 26 26 26 26 26 26 27 27 26 27 27 18 17 19 18 18 17 16 17 17 16 16 15 13
14 13 13 13 12 10 10 12 9 4 4 4 5 6 5 5 4 6 6 5 5 5 6 8 10 11 12 13 13 13 13 13 14 15 17 18 19 19 20 20 20 20 20 20 21 22 21 20 20 18 17 17 17 17 18 19 20 21 21 23 25 26 26 27 28 28 28 28 27 27 27 25 23 22 18 17 18 16 16 17 16 15 14 13 11
11 10 10 10 9 9 5 4 4 4 3 2 4 4 5 6 5 5 5 4 4 8 9 8 9 8 10 12 13 12 12 12 13 19 19 22 19 19 18 19 19 19 21 23 20 19 16 15 14 14 14 14 15 16 16 18 20 20 23 25 21 22 25 25 25 26 26 26 26 26 26 26 23 19 18 17 16 15 16 16 16 14 14 14 11
7 6 8 6 4 5 4 2 2 3 2 2 2 3 9 13 11 7 5 15 14 16 18 11 11 11 10 9 11 12 12 13 19 21 22 22 22 22 22 22 23 21 22 22 18 14 12 11 12 12 12 13 15 15 16 16 16 20 19 17 19 22 24 24 24 25 26 26 27 27 27 26 22 19 17 17 16 15 16 16 14 15 13 11 9
6 6 6 4 6 3 3 3 3 2 3 2 1 2 -1 3 12 14 13 12 14 15 16 15 15 16 15 11 11 16 17 19 20 20 21 21 21 22 22 22 22 22 21 16 13 11 10 10 10 11 12 13 14 14 15 16 19 18 15 17 20 22 22 23 22 24 25 26 26 27 26 24 22 20 18 17 15 14 15 15 14 14 13 11 10
5 3 3 4 6 6 3 3 2 1 0 0 0 -0 -3 -3 -1 9 10 11 13 14 13 13 14 15 16 15 13 12 15 18 19 19 20 20 20 21 21 21 21 20 20 18 11 9 9 10 10 11 12 12 14 14 15 18 17 15 17 19 19 18 19 19 22 23 23 24 25 25 25 23 22 20 18 16 14 14 13 13 13 12 11 11 9
2 2 3 3 3 5 3 2 1 1 -1 -1 -3 -3 -4 -3 -4 -4 2 8 10 11 11 11 12 13 15 16 16 16 16 17 18 19 19 19 20 19 20 20 19 18 17 11 8 8 9 10 11 12 12 13 14 15 15 13 14 16 15 14 14 16 18 19 22 23 24 24 25 25 25 24 21 18 16 15 14 13 13 12 13 12 10 8 7
-1 1 1 2 3 4 3 0 -0 -1 -1 -1 -2 -3 -2 -3 -3 -2 -3 -3 -1 5 6 8 10 12 13 14 14 15 16 17 18 18 18 19 19 19 19 12 15 15 13 8 8 8 9 10 11 12 11 10 9 9 9 9 8 9 10 13 14 15 18 20 21 22 23 24 24 24 24 23 20 17 15 14 13 13 12 12 12 10 9 7 5
-1 4 4 4 2 1 1 1 -1 -3 -1 -3 -2 -2 -3 -2 -0 -1 -3 -3 -3 -4 -4 -3 5 9 8 10 12 14 15 16 17 17 17 17 17 18 15 6 5 6 6 7 8 8 8 7 7 6 6 6 6 5 4 5 5 7 8 10 13 15 16 18 19 21 22 23 24 24 23 22 19 17 15 13 12 12 12 11 11 10 8 6 5
-0 2 3 3 1 0 -2 -2 -2 -3 -4 -5 -5 -1 -0 0 0 -2 -1 -2 -3 -4 -3 -3 -2 6 7 8 10 12 14 15 15 15 15 15 15 15 4 4 4 4 5 5 6 5 5 5 5 5 5 4 4 4 4 5 5 8 10 11 11 13 16 18 19 21 23 23 24 23 23 20 17 15 14 13 12 12 12 11 10 9 7 5 4
0 2 3 1 -1 -1 -4 -5 -6 -5 3 0 -1 -3 -2 -2 -1 -3 -4 -5 -4 -4 -4 -3 -2 -3 2 1 4 8 12 13 13 12 12 12 13 6 4 4 3 4 3 4 4 4 4 3 4 4 3 3 3 3 4 4 6 7 8 10 13 15 16 17 18 20 21 22 23 22 21 18 16 14 13 12 12 12 11 11 9 8 7 5 4
-0 0 -1 -2 -3 -4 -6 -7 -6 1 -1 -1 -3 -3 -3 -4 -4 -3 -3 -5 -3 -3 -3 -3 1 -1 -1 -1 3 3 4 9 8 7 6 7 3 2 2 3 2 2 2 2 3 3 3 2 2 2 2 2 3 3 4 4 5 6 6 9 10 11 15 16 18 19 20 21 21 20 17 15 15 14 13 12 11 11 10 9 8 7 6 5 4
-0 1 1 1 2 -8 -9 -5 -3 -4 -5 -2 -4 -3 -2 -3 -4 -5 -7 -7 -7 -6 -5 -5 -3 -2 -1 -0 -0 3 4 2 0 -1 -0 -0 1 1 1 1 1 2 2 2 2 2 2 1 1 1 1 1 1 2 2 2 3 4 6 7 8 9 12 15 17 17 18 19 19 17 15 14 14 13 13 12 11 11 10 9 7 6 5 4 4
-1 0 1 2 -1 -1 -2 -2 -3 -4 -3 -5 -8 -5 -4 -5 -6 -6 -7 -7 -7 -6 -6 -4 -3 -3 -1 -1 1 3 2 1 -0 -1 -1 -1 -1 -1 -0 -0 -0 0 1 1 1 1 1 0 -0 -0 -0 0 1 1 1 1 2 3 4 4 6 7 9 12 15 16 17 17 17 16 14 13 13 13 13 12 11 10 9 8 7 6 5 4 4
-2 -1 1 2 -1 -3 -3 -4 -4 -6 -6 -5 -6 -7 -7 -5 -4 -3 -6 -6 -6 -5 -5 -5 -5 -4 -1 2 4 5 2 -0 -1 -2 -1 -1 -1 -1 -1 -1 -0 -1 0 0 0 0 0 -1 -1 -1 -0 0 0 -0 0 0 1 1 2 3 4 5 6 9 13 14 15 15 16 15 14 13 13 12 11 11 11 10 9 7 6 5 5 4 1
-2 -2 -2 -2 -2 -5 -6 -5 -5 -1 -5 -3 -7 -7 -5 -4 -5 -5 -5 -4 -4 -4 -6 -6 -6 -4 0 2 4 4 1 -2 -2 -2 -2 -2 -2 -2 -1 -1 -1 -1 -1 -0 -0 0 -0 -1 -1 -1 -0 -0 -0 -0 0 0 0 0 1 2 2 3 5 7 10 12 13 14 14 14 13 12 12 12 11 11 9 8 7 6 6 5 3 -0 -2
-4 -5 -7 -6 -7 -6 -7 -7 -7 -10 -8 -8 -7 -2 -3 -4 -6 -5 -5 -5 -5 -5 -6 -6 -5 -5 -3 1 1 1 -3 -5 -1 -3 -3 -2 -2 -2 -2 -2 -2 -1 -1 -1 -0 -0 -1 -1 -1 -1 -0 -0 -0 0 1 1 1 1 1 1 2 2 3 5 7 9 12 13 13 12 12 12 12 11 10 9 9 7 6 6 4 2 0 -1 -2
-4 -5 -6 -6 -7 -7 -6 -8 -7 -7 -8 -5 -4 -4 -4 -5 -6 -6 -7 -8 -8 -7 -7 -7 -6 -5 -5 -3 -2 -4 -6 -6 -6 -5 -4 -3 -3 -3 -3 -2 -2 -2 -1 -1 -1 -1 -1 -1 -1 -1 -0 -0 1 2 2 2 2 2 2 2 3 3 4 4 6 8 10 12 12 12 12 12 11 10 9 9 8 6 5 4 2 -0 -1 -2 -2
-5 -5 -7 -8 -8 -9 -9 -7 -7 -8 -5 -4 -6 -7 -5 -7 -7 -8 -8 -8 -7 -7 -7 -7 -6 -6 -6 -7 -7 -7 -7 -7 -5 -4 -5 -4 -4 -4 -3 -3 -3 -2 -2 -2 -2 -2 -2 -1 -1 -1 -1 -0 1 2 2 3 3 3 3 3 3 4 5 6 7 9 11 12 12 11 11 11 9 9 9 8 7 6 5 3 1 -0 -1 -2 -2
-5 -6 -7 -9 -8 -8 -8 -12 -5 -9 -9 -9 -11 -12 -11 -11 -11 -9 -8 -8 -7 -7 -7 -7 -8 -8 -7 -8 -7 -7 -7 -8 -7 -6 -4 -5 -5 -4 -4 -3 -3 -3 -3 -3 -2 -3 -2 -2 -2 -1 -1 -0 1 2 2 3 3 4 4 4 4 5 6 7 9 10 11 11 11 11 11 10 9 8 8 7 6 6 4 3 1 -0 -1 -1 -2
-5 -6 -7 -7 -6 -8 -8 -8 -9 -11 -12 -11 -10 -10 -10 -11 -11 -9 -6 -6 -8 -6 -8 -9 -10 -10 -9 -9 -8 -8 -7 -7 -7 -7 -7 -7 -6 -6 -5 -5 -4 -4 -4 -4 -4 -3 -3 -3 -2 -2 -1 -1 0 1 2 2 3 4 4 4 5 6 7 7 9 10 10 11 11 11 10 9 8 8 7 7 6 5 4 2 1 0 -0 -1 -2
-5 -5 -5 -5 -7 -9 -10 -10 -9 -4 -9 -9 -9 -9 -8 -9 -9 -9 -10 -10 -10 -10 -10 -10 -12 -12 -9 -10 -9 -9 -8 -8 -7 -6 -7 -7 -7 -7 -6 -6 -5 -5 -4 -4 -4 -4 -4 -3 -3 -3 -2 -1 -0 1 1 2 2 3 3 4 5 6 7 7 8 9 9 10 10 9 9 8 8 7 7 6 5 4 3 2 1 0 -1 -2 -2
-6 -6 -6 -6 -6 -6 -8 -10 -8 -11 -11 -11 -10 -10 -9 -10 -10 -11 -11 -11 -11 -11 -13 -12 -12 -12 -12 -11 -10 -9 -9 -7 -9 -9 -9 -8 -8 -8 -7 -7 -6 -6 -6 -5 -5 -5 -4 -4 -4 -3 -3 -2 -1 0 1 1 1 2 3 4 5 6 6 7 7 7 7 8 8 8 8 8 7 6 6 5 4 3 2 1 0 -1 -2 -2 -3
-6 -6 -6 -6 -6 -7 -8 -9 -10 -13 -12 -12 -13 -13 -11 -10 -11 -11 -12 -12 -13 -13 -15 -15 -13 -14 -14 -11 -10 -10 -10 -10 -10 -10 -10 -9 -9 -8 -8 -8 -8 -8 -7 -7 -6 -5 -5 -5 -4 -4 -3 -3 -2 -0 1 1 1 2 3 3 5 5 6 7 7 6 6 6 7 7 7 6 6 5 4 3 2 2 1 -0 -1 -1 -2 -3 -3
-6 -6 -6 -6 -7 -8 -9 -11 -12 -13 -13 -13 -13 -13 -12 -11 -11 -13 -13 -14 -13 -14 -14 -16 -16 -15 -14 -13 -11 -11 -11 -11 -10 -10 -10 -10 -10 -10 -9 -9 -9 -9 -9 -9 -8 -7 -6 -6 -5 -4 -4 -3 -2 -1 1 2 3 4 4 4 4 4 4 5 5 5 5 5 5 5 5 4 4 3 2 2 1 0 -0 -1 -1 -2 -3 -3 -4